Location: Ballingbuur
(53.0000°N, 5.7667°E)
Time: 14:46:07
(UTC+00:00)

Cosmos 1500 Rocket - Visible Passes

Search period start: 17 April 2021 00:00
Search period end: 27 April 2021 00:00
Orbit: 604 x 630 km, 82.5° (Epoch: 16 April)

Date Brightness Start Highest point End Pass type
(mag) Time Alt. Az. Time Alt. Az. Time Alt. Az.
17 Apr 5.4 20:42:31 10° NNE 20:45:34 18° ENE 20:46:54 16° E visible
17 Apr 3.6 22:19:29 10° NNW 22:23:57 73° W 22:24:01 73° WSW visible
18 Apr 6.2 00:00:07 10° WNW 00:00:55 10° WNW 00:01:08 10° W visible
18 Apr 4.9 20:58:49 10° N 21:02:38 27° ENE 21:03:43 24° E visible
18 Apr 4.3 22:36:24 10° NNW 22:40:39 44° W 22:40:50 43° W visible
19 Apr 4.2 21:15:19 10° N 21:19:36 41° ENE 21:20:33 36° ESE visible
19 Apr 5.0 22:53:29 10° NNW 22:57:15 27° W 22:57:40 27° W visible
20 Apr 5.8 19:56:08 10° NE 19:57:42 12° NE 19:59:16 10° ENE visible
20 Apr 3.6 21:31:59 10° N 21:36:28 68° ENE 21:37:23 52° SE visible
20 Apr 5.7 23:10:53 10° NW 23:13:47 17° W 23:14:30 17° W visible
21 Apr 5.4 20:11:49 10° NNE 20:14:51 18° ENE 20:17:07 13° E visible
21 Apr 3.6 21:48:46 10° NNW 21:53:15 73° W 21:54:14 52° SSW visible
21 Apr 6.2 23:29:24 10° WNW 23:30:12 10° WNW 23:31:00 10° W visible
22 Apr 4.9 20:28:06 10° N 20:31:55 26° ENE 20:33:59 19° ESE visible
22 Apr 4.4 22:05:41 10° NNW 22:09:56 44° W 22:11:06 36° SW visible
23 Apr 4.2 20:44:37 10° N 20:48:53 41° ENE 20:50:51 26° SE visible
23 Apr 5.2 22:22:47 10° NNW 22:26:33 27° W 22:27:59 23° WSW visible
24 Apr 3.6 21:01:17 10° N 21:05:46 68° ENE 21:07:45 32° SSE visible
24 Apr 5.8 22:40:11 10° NW 22:43:04 17° W 22:44:53 14° WSW visible
25 Apr 5.4 19:41:07 10° NNE 19:44:09 17° ENE 19:47:08 10° ESE visible
25 Apr 3.7 21:18:04 10° NNW 21:22:32 74° W 21:24:40 30° S visible
25 Apr 6.3 22:58:43 10° WNW 22:59:30 10° WNW 23:00:17 10° W visible
26 Apr 4.9 19:57:24 10° N 20:01:12 26° ENE 20:04:27 12° ESE visible
26 Apr 4.5 21:34:58 10° NNW 21:39:14 44° W 21:41:35 23° SSW visible
